EW2804 Weather Reports


Display with metric or nautical units.
time (UTC)temp
F
wind
direction
speed
MPH
gust
MPH
rain 1hr
in
rain 24hr
in
rain mn
in
humidity
%
barometer
mb
20260504031732 69 164 0.0 0.0 0.00 0.01 0.01 46 1014.2
20260504030715 70 164 0.0 1.0 0.00 0.01 0.01 45 1014.2
20260504025649 71 164 0.0 1.0 0.00 0.01 0.01 44 1014.1
20260504024615 71 185 0.0 3.0 0.00 0.01 0.01 44 1014.0
20260504023636 72 173 0.0 5.0 0.00 0.01 0.01 42 1014.1
20260504021426 72 153 1.0 4.0 0.00 0.01 0.01 42 1013.9
20260504020402 72 132 0.0 4.0 0.00 0.01 0.01 41 1013.9
20260504015403 73 144 0.0 4.0 0.00 0.01 0.01 41 1013.9
20260504014327 73 148 0.0 2.0 0.00 0.01 0.01 39 1013.8
20260504013324 74 148 1.0 7.0 0.00 0.01 0.01 39 1013.7
20260504012343 74 161 1.0 7.0 0.00 0.01 0.01 38 1013.6
20260504011330 75 102 1.0 6.0 0.00 0.01 0.01 38 1013.6
20260504010336 75 200 1.0 6.0 0.00 0.01 0.01 38 1013.5
20260504005320 75 146 1.0 5.0 0.00 0.01 0.01 37 1013.4
20260504004322 76 151 0.0 6.0 0.00 0.01 0.01 37 1013.4
20260504003251 77 186 1.0 7.0 0.00 0.01 0.01 36 1013.5
20260504001143 79 227 1.0 9.0 0.00 0.01 0.01 35 1013.6
20260504000130 80 30 1.0 5.0 0.00 0.01 0.01 33 1013.5
20260503234005 80 237 1.0 12.0 0.00 0.01 0.01 35 1013.8
20260503231825 80 239 3.0 7.0 0.00 0.01 0.01 32 1014.0
20260503230750 80 178 2.0 8.0 0.00 0.01 0.01 34 1014.0
20260503225746 80 221 3.0 10.0 0.00 0.01 0.01 32 1014.0
20260503224803 81 80 3.0 10.0 0.00 0.01 0.01 34 1014.2
20260503223800 82 136 3.0 9.0 0.00 0.01 0.01 30 1014.1
20260503222741 82 254 3.0 9.0 0.00 0.01 0.01 30 1014.2
20260503221740 82 242 3.0 12.0 0.00 0.01 0.01 29 1014.3
20260503220754 81 228 4.0 15.0 0.00 0.01 0.01 31 1014.5
20260503215717 82 262 3.0 15.0 0.00 0.01 0.01 29 1014.6
20260503214648 82 213 2.0 10.0 0.00 0.01 0.01 30 1014.7
20260503213617 82 217 4.0 12.0 0.00 0.01 0.01 29 1014.8
20260503212542 81 260 4.0 12.0 0.00 0.01 0.01 32 1015.0
20260503211605 81 111 3.0 8.0 0.00 0.01 0.01 30 1015.2
20260503210622 82 250 3.0 8.0 0.00 0.01 0.01 31 1015.4
20260503205625 82 234 3.0 12.0 0.00 0.01 0.01 30 1015.6
20260503204557 82 184 3.0 12.0 0.00 0.01 0.01 33 1015.8
20260503202433 81 205 3.0 8.0 0.00 0.01 0.01 35 1016.2
20260503200327 81 109 4.0 10.0 0.00 0.01 0.01 36 1016.6
20260503195253 80 311 3.0 9.0 0.00 0.01 0.01 36 1016.7
20260503194258 81 281 3.0 8.0 0.00 0.01 0.01 33 1016.9
20260503192058 80 205 4.0 11.0 0.00 0.01 0.01 38 1017.4
20260503191112 80 232 4.0 15.0 0.00 0.01 0.01 33 1017.5
20260503190039 80 226 4.0 15.0 0.00 0.01 0.01 35 1017.6
20260503185045 80 155 3.0 10.0 0.00 0.01 0.01 38 1017.7
20260503184059 79 238 4.0 10.0 0.00 0.01 0.01 39 1017.9
20260503183059 80 298 3.0 9.0 0.00 0.01 0.01 38 1018.0
20260503175805 79 248 3.0 10.0 0.00 0.01 0.01 44 1018.7
20260503174749 79 238 3.0 12.0 0.00 0.01 0.01 40 1018.9
20260503173741 78 236 3.0 12.0 0.00 0.01 0.01 43 1019.0
20260503172752 77 226 5.0 10.0 0.00 0.01 0.01 42 1019.1
20260503170629 77 215 4.0 10.0 0.00 0.01 0.01 45 1019.4
20260503150457 71 253 3.0 10.0 0.00 0.01 0.01 55 1020.0
20260503140309 65 234 1.0 7.0 0.00 0.01 0.01 66 1020.0
20260503131111 54 0 0.0 0.0 0.00 0.01 0.01 88 1019.8
20260503110808 50 213 0.0 0.0 0.00 0.00 0.00 87 1018.9
20260503081557 53 213 0.0 0.0 0.00 0.00 0.00 85 1018.6
20260503080526 53 213 0.0 0.0 0.00 0.00 0.00 85 1018.7
20260503071303 54 213 0.0 0.0 0.00 0.00 0.00 84 1018.9
20260503070245 54 213 0.0 0.0 0.00 0.00 0.00 85 1019.0
20260503055043 54 213 0.0 0.0 0.00 0.00 0.00 83 1018.7
20260503054013 55 213 0.0 0.0 0.00 0.00 0.00 83 1018.7
20260503053035 55 213 0.0 0.0 0.00 0.00 0.00 82 1018.6
20260503050948 55 213 0.0 0.0 0.00 0.00 0.00 82 1018.5
20260503044814 56 213 0.0 0.0 0.00 0.00 0.00 81 1018.5
20260503043800 56 213 0.0 0.0 0.00 0.00 0.00 81 1018.5
20260503042821 57 213 0.0 0.0 0.00 0.00 0.00 81 1018.5
20260503041747 57 213 0.0 0.0 0.00 0.00 0.00 81 1018.5
20260503035643 57 213 0.0 0.0 0.00 0.00 0.00 79 1018.5
20260503034641 58 213 0.0 0.0 0.00 0.00 0.00 79 1018.5